Date String (YYYY-MM-DD hh:mm:ss) UTC,Instrument flags,absolute air pressure of the measurement (hPa),sample flow rate (lpm),inlet stack bypass flow (lpm),air temperature of the measurement (°C),ambient temperature measured by the external sensor (°C),aerosol sample conditioner tube jacket temperature (°C),OPC LED temperature (°C),internal box temperature (°C),relative humidity of the measurement (%),span deviation,mass concentration of particles derived from Lorenz-Mie calculation of OPC scattering (μg/m³),mass concentration of particles derived from Lorenz-Mie calculation of OPC scattering (μg/m³),mass concentration of particles derived from Lorenz-Mie calculation of OPC scattering (μg/m³)
DateTimeUTC,F1_M11,P_M11,Q1_M11,Q2_M11,T1_M11,T2_M11,T3_M11,T4_M11,T5_M11,U1_M11,ZSPAN_M11,X0_M11,X2_M11,X1_M11
2023-07-25 11:00:00,SystemResetWarning,0834.0,5.01,000.00,029.5,028.4,000.0,037.9,031.2,25.2,0000.0,0012.25,0006.27,0005.37
2023-07-25 11:01:00,SystemResetWarning,0834.0,4.99,000.00,029.5,027.2,000.0,037.8,031.1,25.3,0000.0,0012.51,0006.28,0005.37
2023-07-25 11:02:00,SystemResetWarning,0833.9,5.00,000.00,029.5,025.7,000.0,037.7,030.9,25.4,0000.0,0013.14,0006.30,0005.38
2023-07-25 11:03:00,SystemResetWarning,0833.9,5.02,000.00,029.4,025.5,000.0,037.7,030.7,25.4,0000.0,0013.24,0006.32,0005.40
2023-07-25 11:04:00,SystemResetWarning,0833.9,5.00,000.00,029.3,025.7,000.0,037.7,030.6,25.6,0000.0,0012.67,0006.31,0005.40
2023-07-25 11:05:00,SystemResetWarning,0833.9,4.99,000.00,029.2,026.1,000.0,037.7,030.6,25.8,0000.0,0012.51,0006.29,0005.40
2023-07-25 11:06:00,SystemResetWarning,0833.9,5.00,000.00,029.2,026.5,000.0,037.7,030.7,25.7,0000.0,0012.20,0006.27,0005.40
2023-07-25 11:07:00,SystemResetWarning,0833.9,5.00,000.00,029.2,026.9,000.0,037.7,030.8,25.6,0000.0,0011.83,0006.23,0005.41
2023-07-25 11:08:00,SystemResetWarning,0833.9,5.01,000.00,029.2,027.1,000.0,037.8,030.8,25.5,0000.0,0012.19,0006.26,0005.45
2023-07-25 11:09:00,SystemResetWarning,0834.0,4.99,000.00,029.3,027.4,000.0,037.8,030.9,25.4,0000.0,0012.84,0006.29,0005.47
2023-07-25 11:10:00,SystemResetWarning,0833.9,5.00,000.00,029.3,027.6,000.0,037.8,030.9,25.3,0000.0,0013.08,0006.31,0005.48
2023-07-25 11:11:00,SystemResetWarning,0834.1,5.00,000.00,029.3,027.8,000.0,037.8,030.9,25.4,0000.0,0012.73,0006.32,0005.50
2023-07-25 11:12:00,SystemResetWarning,0834.0,5.00,000.00,029.3,027.9,000.0,037.8,031.0,25.6,0000.0,0013.19,0006.36,0005.52
2023-07-25 11:13:00,SystemResetWarning,0834.0,5.00,000.00,029.4,028.0,000.0,037.8,031.0,25.6,0000.0,0012.89,0006.36,0005.53
2023-07-25 11:14:00,SystemResetWarning,0833.9,5.01,000.00,029.4,028.1,000.0,037.8,031.1,25.4,0000.0,0012.73,0006.35,0005.53
2023-07-25 11:15:00,SystemResetWarning,0834.0,5.00,000.00,029.4,028.2,000.0,037.8,031.1,25.3,0000.0,0012.84,0006.34,0005.53
2023-07-25 11:16:00,SystemResetWarning,0834.0,5.00,000.00,029.5,028.3,000.0,037.9,031.1,25.5,0000.0,0013.22,0006.35,0005.55
2023-07-25 11:17:00,SystemResetWarning,0834.0,5.00,000.00,029.5,028.4,000.0,037.9,031.2,25.7,0000.0,0013.46,0006.36,0005.57
2023-07-25 11:18:00,SystemResetWarning,0834.0,4.99,000.00,029.5,028.5,000.0,037.9,031.2,25.8,0000.0,0013.52,0006.37,0005.57
2023-07-25 11:19:00,SystemResetWarning,0834.0,4.99,000.00,029.6,028.3,000.0,037.9,031.2,25.9,0000.0,0013.12,0006.33,0005.57
2023-07-25 11:20:00,SystemResetWarning,0833.9,4.99,000.00,029.5,026.6,000.0,037.8,031.0,26.3,0000.0,0012.47,0006.30,0005.55
2023-07-25 11:21:00,SystemResetWarning,0833.9,5.00,000.00,029.4,025.5,000.0,037.7,030.7,26.6,0000.0,0012.61,0006.27,0005.55
2023-07-25 11:22:00,SystemResetWarning,0833.9,5.01,000.00,029.3,025.6,000.0,037.7,030.5,26.9,0000.0,0012.89,0006.27,0005.55
2023-07-25 11:23:00,SystemResetWarning,0834.0,5.02,000.00,029.3,025.9,000.0,037.7,030.5,27.1,0000.0,0012.22,0006.27,0005.55
2023-07-25 11:24:00,SystemResetWarning,0834.0,4.99,000.00,029.2,026.3,000.0,037.8,030.6,27.0,0000.0,0011.56,0006.27,0005.55
2023-07-25 11:25:00,SystemResetWarning,0834.0,5.00,000.00,029.2,026.6,000.0,037.8,030.7,27.0,0000.0,0011.59,0006.30,0005.55
2023-07-25 11:26:00,SystemResetWarning,0834.0,5.01,000.00,029.2,027.0,000.0,037.8,030.8,27.2,0000.0,0011.62,0006.31,0005.56
2023-07-25 11:27:00,SystemResetWarning,0834.0,4.99,000.00,029.3,027.2,000.0,037.8,030.8,27.3,0000.0,0011.53,0006.33,0005.57
2023-07-25 11:28:00,SystemResetWarning,0834.0,4.99,000.00,029.3,027.5,000.0,037.8,030.9,27.3,0000.0,0011.11,0006.32,0005.55
2023-07-25 11:29:00,SystemResetWarning,0834.0,5.00,000.00,029.3,027.7,000.0,037.8,030.9,27.2,0000.0,0011.13,0006.28,0005.53
2023-07-25 11:30:00,SystemResetWarning,0834.0,5.01,000.00,029.3,027.8,000.0,037.8,031.0,26.9,0000.0,0011.55,0006.30,0005.51
2023-07-25 11:31:00,SystemResetWarning,0834.0,5.01,000.00,029.4,028.0,000.0,037.8,031.0,26.9,0000.0,0011.75,0006.31,0005.50
2023-07-25 11:32:00,SystemResetWarning,0834.0,4.99,000.00,029.4,028.1,000.0,037.8,031.0,27.0,0000.0,0013.49,0006.32,0005.50
2023-07-25 11:33:00,SystemResetWarning,0834.0,4.99,000.00,029.4,028.2,000.0,037.8,031.1,27.0,0000.0,0013.42,0006.33,0005.50
2023-07-25 11:34:00,SystemResetWarning,0834.0,4.99,000.00,029.5,028.3,000.0,037.8,031.1,27.0,0000.0,0013.33,0006.30,0005.48
2023-07-25 11:35:00,SystemResetWarning,0834.0,5.00,000.00,029.5,028.3,000.0,037.9,031.2,27.0,0000.0,0013.36,0006.30,0005.48
2023-07-25 11:36:00,SystemResetWarning,0834.0,5.00,000.00,029.5,028.3,000.0,037.9,031.2,27.0,0000.0,0013.33,0006.29,0005.48
2023-07-25 11:37:00,SystemResetWarning,0834.0,5.00,000.00,029.5,026.6,000.0,037.8,031.1,27.0,0000.0,0013.45,0006.30,0005.49
2023-07-25 11:38:00,SystemResetWarning,0834.0,5.00,000.00,029.4,025.5,000.0,037.7,030.9,26.9,0000.0,0013.37,0006.28,0005.47
2023-07-25 11:39:00,SystemResetWarning,0834.0,5.01,000.00,029.4,025.5,000.0,037.7,030.6,27.1,0000.0,0013.66,0006.25,0005.47
2023-07-25 11:40:00,SystemResetWarning,0834.0,5.01,000.00,029.3,025.8,000.0,037.7,030.6,27.2,0000.0,0014.34,0006.26,0005.47
2023-07-25 11:41:00,SystemResetWarning,0834.0,4.99,000.00,029.2,026.2,000.0,037.7,030.6,27.3,0000.0,0014.38,0006.27,0005.48
2023-07-25 11:42:00,SystemResetWarning,0833.9,5.00,000.00,029.2,026.6,000.0,037.7,030.7,27.4,0000.0,0014.46,0006.27,0005.48
2023-07-25 11:43:00,SystemResetWarning,0834.0,5.00,000.00,029.2,026.9,000.0,037.7,030.8,27.3,0000.0,0012.92,0006.25,0005.48
2023-07-25 11:44:00,SystemResetWarning,0833.9,5.00,000.00,029.3,027.2,000.0,037.8,030.8,27.2,0000.0,0012.50,0006.24,0005.48
2023-07-25 11:45:00,SystemResetWarning,0834.0,4.99,000.00,029.3,027.4,000.0,037.8,030.9,26.7,0000.0,0012.86,0006.25,0005.48
2023-07-25 11:46:00,SystemResetWarning,0834.0,4.99,000.00,029.3,027.6,000.0,037.8,030.9,26.1,0000.0,0013.35,0006.18,0005.46
2023-07-25 11:47:00,SystemResetWarning,0834.0,5.02,000.00,029.3,027.8,000.0,037.8,031.0,25.4,0000.0,0013.85,0006.15,0005.45
2023-07-25 11:48:00,SystemResetWarning,0833.9,5.00,000.00,029.3,027.9,000.0,037.8,031.0,24.3,0000.0,0013.69,0006.12,0005.44
2023-07-25 11:49:00,SystemResetWarning,0834.0,5.00,000.00,029.4,028.0,000.0,037.8,031.0,23.9,0000.0,0013.96,0006.09,0005.44
2023-07-25 11:50:00,SystemResetWarning,0834.0,5.00,000.00,029.4,028.1,000.0,037.8,031.1,23.7,0000.0,0013.78,0006.10,0005.45
2023-07-25 11:51:00,SystemResetWarning,0834.0,4.99,000.00,029.4,028.2,000.0,037.8,031.1,23.4,0000.0,0013.02,0006.09,0005.44
2023-07-25 11:52:00,SystemResetWarning,0834.0,4.99,000.00,029.5,028.3,000.0,037.9,031.2,23.6,0000.0,0012.84,0006.08,0005.44
2023-07-25 11:53:00,SystemResetWarning,0834.0,5.00,000.00,029.5,028.4,000.0,037.9,031.2,23.6,0000.0,0012.94,0006.10,0005.45
2023-07-25 11:54:00,SystemResetWarning,0834.0,5.00,000.00,029.5,028.4,000.0,037.9,031.2,23.9,0000.0,0012.67,0006.13,0005.46
2023-07-25 11:55:00,SystemResetWarning,0834.0,4.99,000.00,029.6,028.0,000.0,037.9,031.2,23.9,0000.0,0012.36,0006.11,0005.46
2023-07-25 11:56:00,SystemResetWarning,0834.0,5.00,000.00,029.5,026.2,000.0,037.8,030.9,23.9,0000.0,0012.01,0006.10,0005.48
2023-07-25 11:57:00,SystemResetWarning,0834.1,5.00,000.00,029.4,025.5,000.0,037.7,030.7,23.8,0000.0,0011.48,0006.17,0005.51
2023-07-25 11:58:00,SystemResetWarning,0834.0,5.01,000.00,029.3,025.7,000.0,037.7,030.5,24.1,0000.0,0011.05,0006.20,0005.51
2023-07-25 11:59:00,SystemResetWarning,0834.0,5.00,000.00,029.3,026.0,000.0,037.7,030.6,24.2,0000.0,0011.09,0006.22,0005.52
